This is the latest recevied weather packets stored in our database for station/object N0HOT. If no packets are shown the sender has not sent any weather packets the latest 10 day(s).
| Time | Temp. | Humidity | Pressure | Rain* | Wind** | Luminosity | Snow |
|---|---|---|---|---|---|---|---|
| 1787875025 | 25° C | 55% | 1016.3 hPa | 0 mm | - | 28 W/m² | - |
| 1787874721 | 25° C | 56% | 1016.3 hPa | 0 mm | - | 32 W/m² | - |
| 1787874418 | 25.56° C | 55% | 1016.7 hPa | 0 mm | - | 35 W/m² | - |
| 1787874114 | 25.56° C | 55% | 1016.7 hPa | 0 mm | - | 39 W/m² | - |
| 1787873814 | 25.56° C | 54% | 1016.3 hPa | 0 mm | - | 42 W/m² | - |
| 1787873508 | 25.56° C | 51% | 1016.7 hPa | 0 mm | - | 46 W/m² | - |
| 1787873203 | 26.11° C | 50% | 1016.7 hPa | 0 mm | - | 49 W/m² | - |
| 1787872902 | 26.11° C | 47% | 1016.7 hPa | 0 mm | - | 51 W/m² | - |
| 1787872598 | 26.11° C | 48% | 1016.7 hPa | 0 mm | - | 60 W/m² | - |
| 1787872293 | 26.11° C | 47% | 1016.7 hPa | 0 mm | - | 73 W/m² | - |
| 1787871992 | 26.11° C | 48% | 1016.7 hPa | 0 mm | - | 108 W/m² | - |
| 1787871688 | 26.11° C | 49% | 1016.3 hPa | 0 mm | - | 65 W/m² | - |
| 1787871383 | 26.67° C | 49% | 1016.7 hPa | 0 mm | - | 65 W/m² | - |
| 1787871078 | 26.67° C | 47% | 1016.7 hPa | 0 mm | - | 71 W/m² | - |
| 1787870777 | 26.67° C | 48% | 1016.7 hPa | 0 mm | - | 73 W/m² | - |
| 1787870473 | 26.67° C | 48% | 1016.7 hPa | 0 mm | - | 72 W/m² | - |
| 1787870168 | 27.22° C | 47% | 1016.7 hPa | 0 mm | - | 90 W/m² | - |
| 1787869862 | 27.22° C | 44% | 1016.7 hPa | 0 mm | - | 87 W/m² | - |
| 1787869561 | 27.78° C | 45% | 1016.7 hPa | 0 mm | - | 80 W/m² | - |
| 1787869256 | 27.78° C | 48% | 1016.7 hPa | 0 mm | - | 83 W/m² | - |
| 1787868954 | 28.33° C | 46% | 1016.7 hPa | 0 mm | - | 97 W/m² | - |
| 1787868649 | 28.33° C | 47% | 1016.7 hPa | 0 mm | - | 120 W/m² | - |
| 1787868347 | 28.33° C | 44% | 1016.7 hPa | 0 mm | - | 148 W/m² | - |
| 1787868043 | 28.33° C | 41% | 1016.7 hPa | 0 mm | - | 144 W/m² | - |
| 1787867738 | 28.89° C | 46% | 1016.7 hPa | 0 mm | - | 181 W/m² | - |
* Rain latest hour (hover to see other rain measurements)
** Current wind speed in m/s (hover to see current wind gust speed)